COSMOS 2444 (GLONASS)

Satellite information

Favourite Embed

Satellite Type and Status

PAYLOADIN ORBIT

Key statistics

Satellite COSMOS 2444 (GLONASS) at a glance.

Uptime

6242

Days in orbit

Revolutions

≈ 2.1

Per day

Orbit

MEO

Medium Earth Orbit

Inclination

65.6

Latest

Satellite identification and parameters

Extended collection of information and parameters for COSMOS 2444 (GLONASS).

Object identification

Identified? True

Debris? False

Object name: COSMOS 2444 (GLONASS)

International designator: 2008-046C

Object number (NORAD): 33380

Object ID (CCSDS): 33380

Country: COMMONWEALTH OF INDEPENDENT STATES (CIS)

Current information (Y/N): Y

RCS size: LARGE

Orbital parameters

Period: 675.7 minutes

Inclination: 65.6169 deg

SMA: 25507.201 km

Apoapsis: 19179.147 km

Periapsis: 19078.985 km

RAAN: 322.9265 deg

Eccentricy: 0.0019634

Argument of periapsis: 290.1786 deg

Mean anomaly: 63.5405 deg

Mean motion: 2.1311232 rev/day

Mean motion (dot): -0.00000028 rev/day2

B* drag term: 0.0 1/REarth

Two-line elements (TLE)

Creation date: Oct. 26, 2025, 10:54 a.m.

Reference frame: TEME

Reference center: EARTH

Epoch: Oct. 26, 2025, 4:52 a.m. UTC

TLE line 0: 0 COSMOS 2444 (GLONASS)

TLE line 1: 1 33380U 08046C 25299.20327845 -.00000028 00000-0 00000-0 0 9994

TLE line 2: 2 33380 65.6169 322.9265 0019634 290.1786 63.5405 2.13112320132955

Live tracking on map

Real-time ground track for satellite COSMOS 2444 (GLONASS).

In-orbit conjunctions

A list of the most updated potential collisions computed for object COSMOS 2444 (GLONASS).

Target Orbit TCA Probability of collision Miss distance Type
COSMOS 2289 (GLONASS) MEO 2025-05-09 10:06:56 TBA 4586.0 (m) PAYLOAD
SL-12 R/B(2) MEO 2025-05-01 12:36:58 TBA 3037.0 (m) ROCKET BODY

Associated space launch

GLONASS navigation satellites

COSMOS 2444 (GLONASS) was lifted into orbit during the mission ‘Proton-M | Uragan-M 15 to 17’, on board a Proton-M space rocket.

The launch took place on Sept. 25, 2008, 8:49 a.m. from 81/23 (81L).

For more information about the launch, click the button.

Launch to space Proton-M | Uragan-M 15 to 17
Proton-M | Uragan-M 15 to 17

Agency: N/A

Status: Launch Successful

Launch date: Sept. 25, 2008, 8:49 a.m. UTC

Rocket: Proton-M

Launch pad: 81/23 (81L)

Location: Baikonur Cosmodrome, Republic of Kazakhstan

...

Latest news about this satellite

There are no fresh news available about this satellite. Check back as we update our databases every day.


Newsletter sign-up

Weekly statistics, charts and insights to help you stay on top of the space industry.